Belleville, IL

2:39 PM CDT on July 24, 2017 (GMT -0500)
Scott Air Force Base-Midamerica

Weather History for KBLV - January, 2013

Change the Weather History Date:

Friday, January 18, 2013

  Actual Average Record
Temperature  
Mean Temperature 35 °F -  
Max Temperature 49 °F 38 °F 69 °F (1951)
Min Temperature 21 °F 21 °F -5 °F (1977)
Degree Days  
Heating Degree Days 30    
Moisture  
Dew Point 26 °F    
Average Humidity 72    
Maximum Humidity 97    
Minimum Humidity 43    
Precipitation  
Precipitation 0.00 in - - ()
Sea Level Pressure  
Sea Level Pressure 30.37 in    
Wind  
Wind Speed 4 mph (South)    
Max Wind Speed 9 mph    
Max Gust Speed 17 mph    
Visibility 10 miles    
Events      
Averages and records for this station are not official NWS values.
T = Trace of Precipitation, MM = Missing Value Source: NWS Daily Summary

Daily Weather History Graph

Daily Weather History Graph

Search for Another Location

Airport or City:

Trip Planner

Search our weather history database for the weather conditions in past years. The results will help you decide how hot, cold, wet, or windy it might be!

Date:

Astronomy

Jan. 18, 2013 Rise Set
Actual Time 7:14 AM CST 5:05 PM CST
Civil Twilight 6:45 AM CST 5:34 PM CST
Nautical Twilight 6:12 AM CST 6:07 PM CST
Astronomical Twilight 5:41 AM CST 6:38 PM CST
Moon 10:58 AM CST (1/18) No Moon Set
Length of Visible Light 10h 49m
Length of Day
9h 51m
Waxing Crescent, 47% of the Moon is Illuminated
Jan 18
Waxing Crescent
Jan 18
First Quarter
Jan 26
Full
Feb 3
Last Quarter
Feb 10
New

Hourly Weather History & Observations

Time (CST) Temp. Windchill Dew Point Humidity Pressure Visibility Wind Dir Wind Speed Gust Speed Precip Events Conditions
12:55 AM 23.7 °F - 23.0 °F 97% 30.52 in 10.0 mi Calm Calm - N/A   Clear
1:55 AM 23.2 °F - 22.1 °F 96% 30.52 in 10.0 mi Calm Calm - N/A   Clear
2:55 AM 22.3 °F - 21.6 °F 97% 30.52 in 10.0 mi Calm Calm - N/A   Clear
3:55 AM 21.9 °F - 21.2 °F 97% 30.51 in 10.0 mi Calm Calm - N/A   Clear
4:55 AM 21.2 °F - 19.9 °F 95% 30.51 in 10.0 mi Calm Calm - N/A   Clear
5:55 AM 21.6 °F 15.3 °F 20.7 °F 96% 30.51 in 10.0 mi South 4.6 mph - N/A   Clear
6:55 AM 21.6 °F 16.8 °F 19.4 °F 91% 30.50 in 10.0 mi South 3.5 mph - N/A   Clear
7:55 AM 24.8 °F 17.9 °F 21.6 °F 87% 30.51 in 10.0 mi South 5.8 mph - N/A   Clear
8:55 AM 30.0 °F 25.2 °F 24.8 °F 81% 30.51 in 10.0 mi South 4.6 mph - N/A   Clear
9:55 AM 34.7 °F 29.6 °F 25.0 °F 68% 30.49 in 10.0 mi Variable 5.8 mph - N/A   Clear
10:55 AM 39.6 °F 34.0 °F 24.1 °F 54% 30.45 in 10.0 mi South 8.1 mph - N/A   Clear
11:55 AM 41.7 °F 38.0 °F 25.0 °F 52% 30.40 in 10.0 mi Variable 5.8 mph - N/A   Clear
12:55 PM 45.0 °F 41.2 °F 26.4 °F 48% 30.35 in 10.0 mi Variable 6.9 mph - N/A   Clear
1:55 PM 47.8 °F - 27.1 °F 45% 30.32 in 10.0 mi South 8.1 mph - N/A   Clear
2:55 PM 49.1 °F - 27.3 °F 43% 30.27 in 10.0 mi South 8.1 mph - N/A   Clear
3:55 PM 48.6 °F - 27.5 °F 44% 30.25 in 10.0 mi South 8.1 mph 16.1 mph N/A   Clear
4:55 PM 45.1 °F 40.3 °F 28.2 °F 52% 30.23 in 10.0 mi SSE 9.2 mph - N/A   Clear
5:55 PM 41.4 °F 35.7 °F 27.9 °F 59% 30.24 in 10.0 mi South 9.2 mph 17.3 mph N/A   Clear
6:55 PM 39.2 °F 33.6 °F 29.5 °F 68% 30.24 in 10.0 mi South 8.1 mph - N/A   Clear
7:55 PM 37.9 °F 31.5 °F 29.8 °F 73% 30.23 in 10.0 mi South 9.2 mph - N/A   Clear
8:55 PM 37.4 °F 31.4 °F 30.0 °F 75% 30.21 in 10.0 mi South 8.1 mph - N/A   Clear
9:55 PM 38.3 °F 33.9 °F 30.0 °F 72% 30.18 in 10.0 mi Variable 5.8 mph - N/A   Clear
10:55 PM 38.1 °F 33.7 °F 30.4 °F 74% 30.17 in 10.0 mi Variable 5.8 mph - N/A   Clear
11:55 PM 37.6 °F - 30.2 °F 75% 30.18 in 10.0 mi Calm Calm - N/A   Clear